Hourly Data Report for October 02, 2015

All times are specified in Local Standard Time (LST). Add 1 hour to adjust for Daylight Saving Time where and when it is observed.

BATHURST A
NEW BRUNSWICK

47°37'47.000" N
65°44'20.000" W
58.80 m
8100505
71574
ZBF

Download Data

Hourly Data (October 2015)
Hourly Data Report for October 2, 2015
Temp Definition
°C
Dew Point Temp Definition
°C
Rel Hum Definition
%
Wind Dir Definition
10's deg

Wind Spd Definition
km/h
Visibility Definition
km
Stn Press Definition
kPa
Hmdx Definition


Wind Chill Definition


Weather Definition


TIME
00:00 Legend Double Dagger 5.7 2.5 80 30 5 24.1 102.05     LegendNANA
01:00 Legend Double Dagger 5.2 2.7 84 33 7 24.1 102.07     LegendNANA
02:00 Legend Double Dagger 5.3 3.2 86 34 4 24.1 102.11     Mostly Cloudy
03:00 Legend Double Dagger 7.8 3.9 76 2 9 24.1 102.08     LegendNANA
04:00 Legend Double Dagger 8.2 3.3 71 2 10 24.1 102.13     LegendNANA
05:00 Legend Double Dagger 8.2 2.7 68 3 11 24.1 102.17     Cloudy
06:00 Legend Double Dagger 8.1 2.4 67 3 13 24.1 102.16     LegendNANA
07:00 Legend Double Dagger 7.7 2.4 69 36 7 24.1 102.19     LegendNANA
08:00 Legend Double Dagger 8.0 2.5 68 2 10 24.1 102.23     Mostly Cloudy
09:00 Legend Double Dagger 7.8 3.1 72 1 7 24.1 102.25     LegendNANA
10:00 Legend Double Dagger 7.6 3.1 73 1 10 24.1 102.30     LegendNANA
11:00 Legend Double Dagger 7.9 4.3 78 2 7 8.1 102.31     Fog
12:00 Legend Double Dagger 7.8 5.1 83 36 8 9.7 102.36     Rain Showers,Fog
13:00 Legend Double Dagger 7.4 5.9 90 2 7 6.4 102.38     Rain Showers,Fog
14:00 Legend Double Dagger 7.6 6.4 92 35 6 6.4 102.39     Rain Showers,Fog
15:00 Legend Double Dagger 7.3 5.8 90 34 6 11.3 102.39     Rain Showers
16:00 Legend Double Dagger 7.6 5.9 89 5 12 8.1 102.41     Rain Showers,Fog
17:00 Legend Double Dagger 7.2 6.2 93 35 5 6.4 102.44     Moderate Rain Showers,Fog
18:00 Legend Double Dagger 6.9 5.7 92 35 5 4.8 102.51     Moderate Rain Showers,Fog
19:00 Legend Double Dagger 6.8 4.8 87 3 16 9.7 102.57     Rain Showers,Fog
20:00 Legend Double Dagger 6.5 4.5 87 3 7 11.3 102.61     Cloudy
21:00 Legend Double Dagger 6.3 4.0 85 2 10 11.3 102.64     LegendNANA
22:00 Legend Double Dagger 5.8 4.3 90 34 7 11.3 102.66     LegendNANA
23:00 Legend Double Dagger 5.8 3.7 86 35 9 11.3 102.66     Cloudy

Notes on Data Quality.

Legend

  • E = Estimated
  • M = Missing
  • NA = Not Available
  • ‡ = Partner data that is not subject to review by the National Climate Archives
Date modified: